LPA3412 UGTB-VIDP

Flight info

Callsign LPA3412
Flight time 4h 9m
Altitude 35000
Route DISKA M737 VERCA M747 BODKA B375 GIRUN G792 MSD/N0465F370 B411 PAMTU P628 RK G202 MERUN G452 LKA LKA7A
Aircraft B738/M-SDE2E3FGHIRWXY/LB1

Departure

Time 2026-04-26 17:24
Airport Tbilisi International Airport (UGTB)

Arrival

Time 2026-04-26 21:33
Airport Indira Gandhi International Airport (VIDP)
Time Latitude Longitude Altitude Speed Heading
2026-04-26 16:26 41.67006 44.96176 1518 ft 0 kts 43°
2026-04-26 17:10 41.66999 44.96167 1518 ft 2 kts 43°
2026-04-26 17:10 41.66987 44.96153 1518 ft 2 kts 42°
2026-04-26 17:11 41.66975 44.96138 1518 ft 2 kts 39°
2026-04-26 17:11 41.66962 44.96125 1520 ft 2 kts 33°
2026-04-26 17:11 41.66947 44.96115 1518 ft 2 kts
2026-04-26 17:11 41.66934 44.96121 1518 ft 1 kts 315°
2026-04-26 17:12 41.66934 44.96122 1518 ft 0 kts 315°
2026-04-26 17:14 41.66938 44.96115 1521 ft 4 kts 313°
2026-04-26 17:15 41.67004 44.96020 1525 ft 13 kts 313°
2026-04-26 17:15 41.67060 44.95928 1523 ft 13 kts 295°
2026-04-26 17:15 41.67112 44.95836 1524 ft 12 kts 313°
2026-04-26 17:16 41.67170 44.95754 1524 ft 12 kts 314°
2026-04-26 17:16 41.67218 44.95688 1523 ft 0 kts 314°
2026-04-26 17:16 41.67220 44.95686 1523 ft 1 kts 314°
2026-04-26 17:16 41.67244 44.95652 1521 ft 8 kts 314°
2026-04-26 17:17 41.67292 44.95586 1525 ft 11 kts 313°
2026-04-26 17:17 41.67345 44.95511 1525 ft 11 kts 315°
2026-04-26 17:17 41.67402 44.95430 1522 ft 12 kts 310°
2026-04-26 17:17 41.67455 44.95346 1525 ft 12 kts 310°
2026-04-26 17:18 41.67510 44.95261 1521 ft 12 kts 311°
2026-04-26 17:18 41.67564 44.95182 1525 ft 12 kts 312°
2026-04-26 17:18 41.67624 44.95097 1520 ft 13 kts 314°
2026-04-26 17:18 41.67661 44.94994 1523 ft 13 kts 263°
2026-04-26 17:19 41.67613 44.94773 1519 ft 12 kts 254°
2026-04-26 17:19 41.67585 44.94654 1520 ft 14 kts 250°
2026-04-26 17:19 41.67555 44.94532 1519 ft 8 kts 251°
2026-04-26 17:20 41.67552 44.94521 1520 ft 0 kts 251°
2026-04-26 17:20 41.67551 44.94518 1521 ft 2 kts 251°
2026-04-26 17:20 41.67532 44.94444 1523 ft 11 kts 244°
2026-04-26 17:20 41.67471 44.94416 1524 ft 11 kts 136°
2026-04-26 17:21 41.67467 44.94420 1524 ft 0 kts 135°
2026-04-26 17:21 41.67460 44.94430 1522 ft 5 kts 135°
2026-04-26 17:21 41.67408 44.94496 1521 ft 15 kts 136°
2026-04-26 17:22 41.67397 44.94511 1523 ft 0 kts 136°
2026-04-26 17:23 41.67380 44.94532 1522 ft 18 kts 137°
2026-04-26 17:23 41.67084 44.94902 1523 ft 96 kts 136°
2026-04-26 17:24 41.66427 44.95730 1520 ft 161 kts 137°
2026-04-26 17:24 41.65517 44.96853 1924 ft 188 kts 138°
2026-04-26 17:24 41.64509 44.98068 2645 ft 201 kts 138°
2026-04-26 17:24 41.63476 44.99326 3603 ft 200 kts 138°
2026-04-26 17:25 41.62392 45.00645 3874 ft 230 kts 137°
2026-04-26 17:25 41.61148 45.02255 3954 ft 265 kts 136°
2026-04-26 17:25 41.59792 45.04024 4598 ft 273 kts 136°
2026-04-26 17:25 41.58427 45.05767 5545 ft 272 kts 137°
2026-04-26 17:26 41.57044 45.07515 6339 ft 275 kts 137°
2026-04-26 17:26 41.55715 45.09367 7087 ft 279 kts 127°
2026-04-26 17:26 41.54632 45.11530 7833 ft 281 kts 122°
2026-04-26 17:26 41.53609 45.13781 8545 ft 285 kts 121°
2026-04-26 17:27 41.52579 45.16059 9228 ft 288 kts 121°
2026-04-26 17:27 41.51531 45.18345 9905 ft 291 kts 122°
2026-04-26 17:27 41.50448 45.20677 10342 ft 304 kts 122°
2026-04-26 17:27 41.49286 45.23152 10499 ft 325 kts 122°
2026-04-26 17:28 41.48045 45.25777 10653 ft 344 kts 122°
2026-04-26 17:28 41.46732 45.28548 10804 ft 362 kts 123°
2026-04-26 17:28 41.45211 45.31313 10963 ft 378 kts 131°
2026-04-26 17:28 41.43419 45.33916 11387 ft 384 kts 134°
2026-04-26 17:29 41.41552 45.36471 11946 ft 385 kts 135°
2026-04-26 17:29 41.40309 45.38165 12322 ft 386 kts 134°
2026-04-26 17:29 41.37800 45.41631 12988 ft 390 kts 134°
2026-04-26 17:29 41.35948 45.44230 13448 ft 393 kts 133°
2026-04-26 17:30 41.34070 45.46892 13908 ft 395 kts 133°
2026-04-26 17:30 41.32188 45.49571 14344 ft 398 kts 133°
2026-04-26 17:30 41.30294 45.52271 14755 ft 401 kts 133°
2026-04-26 17:30 41.28387 45.54989 15166 ft 403 kts 133°
2026-04-26 17:31 41.26468 45.57722 15550 ft 405 kts 133°
2026-04-26 17:31 41.24539 45.60463 15934 ft 407 kts 133°
2026-04-26 17:31 41.22622 45.63251 16291 ft 410 kts 129°
2026-04-26 17:31 41.21016 45.66392 16628 ft 412 kts 119°
2026-04-26 17:32 41.19835 45.69870 16971 ft 414 kts 110°
2026-04-26 17:32 41.18892 45.73494 17306 ft 416 kts 109°
2026-04-26 17:32 41.17964 45.77146 17597 ft 419 kts 109°
2026-04-26 17:32 41.17027 45.80818 17885 ft 421 kts 109°
2026-04-26 17:33 41.16076 45.84499 18200 ft 423 kts 109°
2026-04-26 17:33 41.15111 45.88192 18502 ft 424 kts 109°
2026-04-26 17:33 41.14136 45.91894 18776 ft 426 kts 109°
2026-04-26 17:34 41.12171 45.99301 19092 ft 435 kts 111°
2026-04-26 17:34 41.11154 46.03115 19150 ft 442 kts 111°
2026-04-26 17:34 41.10123 46.06977 19319 ft 446 kts 111°
2026-04-26 17:34 41.09088 46.10857 19594 ft 446 kts 111°
2026-04-26 17:35 41.08052 46.14735 19891 ft 447 kts 111°
2026-04-26 17:35 41.07012 46.18626 20100 ft 449 kts 111°
2026-04-26 17:35 41.05966 46.22532 20314 ft 450 kts 111°
2026-04-26 17:35 41.04915 46.26447 20551 ft 451 kts 111°
2026-04-26 17:36 41.03861 46.30362 20793 ft 452 kts 111°
2026-04-26 17:36 41.02808 46.34293 21031 ft 453 kts 111°
2026-04-26 17:36 41.01755 46.38238 21205 ft 456 kts 111°
2026-04-26 17:36 41.00697 46.42198 21372 ft 457 kts 111°
2026-04-26 17:37 40.99635 46.46170 21572 ft 458 kts 111°
2026-04-26 17:37 40.98568 46.50149 21746 ft 459 kts 111°
2026-04-26 17:37 40.97500 46.54129 22002 ft 459 kts 111°
2026-04-26 17:38 40.95349 46.62120 22646 ft 464 kts 112°
2026-04-26 17:38 40.94519 46.65205 23406 ft 440 kts 110°
2026-04-26 17:38 40.93470 46.68938 22926 ft 429 kts 115°
2026-04-26 17:38 40.92396 46.72546 23859 ft 416 kts 114°
2026-04-26 17:39 40.91303 46.76042 24695 ft 406 kts 117°
2026-04-26 17:39 40.90138 46.79442 25183 ft 407 kts 117°
2026-04-26 17:39 40.88944 46.82852 25524 ft 410 kts 119°
2026-04-26 17:39 40.87687 46.86239 25870 ft 413 kts 119°
2026-04-26 17:40 40.86415 46.89675 26188 ft 417 kts 119°
2026-04-26 17:40 40.85563 46.91940 26544 ft 415 kts 121°
2026-04-26 17:40 40.83748 46.96452 26408 ft 434 kts 122°
2026-04-26 17:40 40.82230 47.00021 26534 ft 441 kts 123°
2026-04-26 17:41 40.80738 47.03459 26972 ft 440 kts 124°
2026-04-26 17:41 40.79166 47.07053 26639 ft 461 kts 120°
2026-04-26 17:41 40.77829 47.10872 27238 ft 457 kts 115°
2026-04-26 17:41 40.76770 47.14840 27502 ft 463 kts 107°
2026-04-26 17:42 40.76186 47.19032 28013 ft 461 kts 97°
2026-04-26 17:42 40.75993 47.23195 28826 ft 451 kts 96°
2026-04-26 17:42 40.75749 47.27282 29513 ft 442 kts 98°
2026-04-26 17:42 40.75410 47.31299 29829 ft 444 kts 100°
2026-04-26 17:43 40.74974 47.35384 29672 ft 456 kts 102°
2026-04-26 17:43 40.74466 47.39578 29453 ft 470 kts 102°
2026-04-26 17:43 40.73880 47.43864 29339 ft 480 kts 104°
2026-04-26 17:43 40.72992 47.48097 29368 ft 480 kts 117°
2026-04-26 17:44 40.69870 47.55911 29504 ft 488 kts 121°
2026-04-26 17:44 40.67057 47.64157 29814 ft 496 kts 115°
2026-04-26 17:45 40.65828 47.68380 30139 ft 494 kts 114°
2026-04-26 17:45 40.64641 47.72641 30481 ft 492 kts 114°
2026-04-26 17:45 40.63487 47.76819 30794 ft 491 kts 114°
2026-04-26 17:45 40.62312 47.81031 31061 ft 490 kts 114°
2026-04-26 17:46 40.61125 47.85232 31285 ft 490 kts 114°
2026-04-26 17:46 40.59914 47.89480 31549 ft 489 kts 115°
2026-04-26 17:46 40.58734 47.93604 31822 ft 488 kts 115°
2026-04-26 17:46 40.57566 47.97788 32106 ft 487 kts 112°
2026-04-26 17:47 40.56518 48.02025 32343 ft 487 kts 111°
2026-04-26 17:47 40.55844 48.04906 32483 ft 487 kts 111°
2026-04-26 17:47 40.54517 48.10541 32778 ft 486 kts 111°
2026-04-26 17:47 40.53487 48.14773 33010 ft 485 kts 112°
2026-04-26 17:48 40.52443 48.18988 33237 ft 484 kts 112°
2026-04-26 17:48 40.51403 48.23191 33416 ft 484 kts 112°
2026-04-26 17:48 40.49321 48.31602 33560 ft 485 kts 112°
2026-04-26 17:49 40.47228 48.40040 33710 ft 485 kts 112°
2026-04-26 17:49 40.46183 48.44248 33821 ft 484 kts 112°
2026-04-26 17:49 40.45141 48.48435 33909 ft 483 kts 112°
2026-04-26 17:50 40.43044 48.56834 34035 ft 484 kts 112°
2026-04-26 17:50 40.40939 48.65234 34154 ft 485 kts 112°
2026-04-26 17:51 40.39885 48.69429 34264 ft 484 kts 112°
2026-04-26 17:51 40.38832 48.73621 34391 ft 483 kts 112°
2026-04-26 17:51 40.36723 48.81983 34498 ft 484 kts 112°
2026-04-26 17:52 40.34599 48.90371 34588 ft 484 kts 112°
2026-04-26 17:52 40.32473 48.98743 34750 ft 484 kts 112°
2026-04-26 17:53 40.30340 49.07110 34841 ft 484 kts 112°
2026-04-26 17:54 40.27097 49.19620 35044 ft 484 kts 113°
2026-04-26 17:54 40.24944 49.27926 35051 ft 485 kts 112°
2026-04-26 17:55 40.22771 49.36329 35035 ft 487 kts 112°
2026-04-26 17:55 40.20592 49.44731 35048 ft 488 kts 112°
2026-04-26 17:56 40.18399 49.53147 35057 ft 488 kts 112°
2026-04-26 17:57 40.14006 49.69914 35053 ft 487 kts 112°
2026-04-26 17:57 40.11809 49.78268 35056 ft 486 kts 113°
2026-04-26 17:58 40.07404 49.94921 35055 ft 484 kts 113°
2026-04-26 17:59 40.04089 50.07378 35053 ft 483 kts 113°
2026-04-26 17:59 40.01894 50.15595 35057 ft 482 kts 113°
2026-04-26 18:00 39.99682 50.23848 35053 ft 482 kts 113°
2026-04-26 18:00 39.97465 50.32093 35055 ft 482 kts 113°
2026-04-26 18:01 39.95240 50.40338 35056 ft 482 kts 113°
2026-04-26 18:01 39.93012 50.48576 35053 ft 482 kts 113°
2026-04-26 18:02 39.91518 50.54079 35060 ft 482 kts 113°
2026-04-26 18:02 39.88531 50.65048 35063 ft 483 kts 113°
2026-04-26 18:03 39.86279 50.73285 35068 ft 483 kts 113°
2026-04-26 18:03 39.84023 50.81518 35065 ft 483 kts 113°
2026-04-26 18:04 39.81761 50.89746 35064 ft 484 kts 113°
2026-04-26 18:05 39.78368 51.02027 35047 ft 482 kts 113°
2026-04-26 18:05 39.76086 51.10256 35062 ft 485 kts 113°
2026-04-26 18:06 39.73783 51.18527 35060 ft 488 kts 113°
2026-04-26 18:06 39.71471 51.26818 35055 ft 489 kts 113°
2026-04-26 18:07 39.69336 51.34446 35061 ft 490 kts 113°
2026-04-26 18:07 39.66997 51.42780 35068 ft 491 kts 113°
2026-04-26 18:08 39.64649 51.51105 35068 ft 491 kts 114°
2026-04-26 18:08 39.62161 51.59285 35070 ft 490 kts 116°
2026-04-26 18:09 39.59580 51.67449 35068 ft 490 kts 116°
2026-04-26 18:09 39.57005 51.75632 35074 ft 490 kts 116°
2026-04-26 18:10 39.54447 51.83816 35070 ft 490 kts 115°
2026-04-26 18:10 39.52320 51.90617 35084 ft 489 kts 116°
2026-04-26 18:11 39.49760 51.98781 35085 ft 488 kts 116°
2026-04-26 18:11 39.47197 52.06924 35084 ft 489 kts 116°
2026-04-26 18:12 39.44626 52.15069 35084 ft 489 kts 116°
2026-04-26 18:12 39.42051 52.23202 35083 ft 488 kts 116°
2026-04-26 18:13 39.39474 52.31313 35092 ft 488 kts 116°
2026-04-26 18:13 39.36892 52.39419 35082 ft 487 kts 116°
2026-04-26 18:14 39.34308 52.47516 35091 ft 487 kts 116°
2026-04-26 18:14 39.31719 52.55601 35096 ft 487 kts 116°
2026-04-26 18:15 39.29122 52.63688 35096 ft 487 kts 116°
2026-04-26 18:15 39.26628 52.71816 35084 ft 488 kts 114°
2026-04-26 18:16 39.24200 52.79983 35096 ft 487 kts 114°
2026-04-26 18:16 39.20544 52.92165 35095 ft 487 kts 114°
2026-04-26 18:17 39.18079 53.00307 35079 ft 487 kts 114°
2026-04-26 18:17 39.15608 53.08431 35101 ft 487 kts 114°
2026-04-26 18:18 39.13131 53.16545 35099 ft 487 kts 114°
2026-04-26 18:18 39.10645 53.24663 35101 ft 487 kts 114°
2026-04-26 18:19 39.08164 53.32755 35071 ft 484 kts 114°
2026-04-26 18:19 39.05720 53.40705 35070 ft 478 kts 115°
2026-04-26 18:20 39.03273 53.48638 35078 ft 475 kts 115°
2026-04-26 18:20 39.01230 53.55239 35077 ft 473 kts 115°
2026-04-26 18:21 38.98398 53.64365 35086 ft 472 kts 115°
2026-04-26 18:21 38.95961 53.72209 35089 ft 473 kts 115°
2026-04-26 18:22 38.93513 53.80087 35088 ft 476 kts 115°
2026-04-26 18:22 38.91050 53.87989 35081 ft 477 kts 115°
2026-04-26 18:23 38.88576 53.95911 35080 ft 479 kts 115°
2026-04-26 18:23 38.86086 54.03860 35079 ft 480 kts 115°
2026-04-26 18:24 38.83584 54.11819 35084 ft 482 kts 115°
2026-04-26 18:24 38.82688 54.14661 35085 ft 482 kts 115°
2026-04-26 18:25 38.80174 54.22630 35087 ft 482 kts 115°
2026-04-26 18:25 38.77669 54.30551 35087 ft 482 kts 115°
2026-04-26 18:26 38.75147 54.38510 35085 ft 482 kts 115°
2026-04-26 18:26 38.72619 54.46456 35083 ft 481 kts 115°
2026-04-26 18:27 38.70088 54.54383 35088 ft 481 kts 115°
2026-04-26 18:27 38.67562 54.62305 35086 ft 480 kts 115°
2026-04-26 18:28 38.65026 54.70204 35098 ft 479 kts 115°
2026-04-26 18:28 38.62485 54.78084 35090 ft 479 kts 115°
2026-04-26 18:29 38.59960 54.85900 35090 ft 478 kts 115°
2026-04-26 18:29 38.57415 54.93764 35096 ft 479 kts 116°
2026-04-26 18:30 38.54864 55.01621 35095 ft 479 kts 115°
2026-04-26 18:30 38.52310 55.09473 35075 ft 479 kts 116°
2026-04-26 18:31 38.49747 55.17329 35085 ft 479 kts 116°
2026-04-26 18:31 38.47178 55.25184 35086 ft 479 kts 116°
2026-04-26 18:32 38.44604 55.33032 35080 ft 479 kts 116°
2026-04-26 18:32 38.42026 55.40870 35095 ft 479 kts 116°
2026-04-26 18:33 38.39440 55.48716 35073 ft 480 kts 116°
2026-04-26 18:33 38.36830 55.56545 35096 ft 480 kts 117°
2026-04-26 18:34 38.34194 55.64296 35094 ft 480 kts 117°
2026-04-26 18:34 38.31534 55.72094 35099 ft 480 kts 117°
2026-04-26 18:35 38.28870 55.79900 35087 ft 480 kts 117°
2026-04-26 18:35 38.26205 55.87705 35099 ft 480 kts 117°
2026-04-26 18:36 38.23533 55.95504 35090 ft 480 kts 117°
2026-04-26 18:36 38.20860 56.03285 35095 ft 480 kts 117°
2026-04-26 18:37 38.18180 56.11065 35098 ft 480 kts 117°
2026-04-26 18:37 38.15518 56.18774 35103 ft 480 kts 117°
2026-04-26 18:38 38.12830 56.26537 35100 ft 479 kts 117°
2026-04-26 18:38 38.10019 56.34199 35096 ft 476 kts 124°
2026-04-26 18:39 38.06135 56.40893 35104 ft 470 kts 133°
2026-04-26 18:39 38.02071 56.47383 35110 ft 470 kts 133°
2026-04-26 18:40 37.98030 56.53908 35114 ft 471 kts 132°
2026-04-26 18:40 37.93996 56.60476 35108 ft 472 kts 132°
2026-04-26 18:41 37.89996 56.67008 35104 ft 473 kts 132°
2026-04-26 18:41 37.85956 56.73587 35113 ft 473 kts 132°
2026-04-26 18:42 37.81909 56.80162 35109 ft 474 kts 132°
2026-04-26 18:42 37.77847 56.86741 35113 ft 474 kts 132°
2026-04-26 18:43 37.73788 56.93309 35123 ft 475 kts 132°
2026-04-26 18:43 37.69713 56.99889 35120 ft 475 kts 132°
2026-04-26 18:44 37.66169 57.05600 35117 ft 475 kts 132°
2026-04-26 18:44 37.62110 57.12127 35131 ft 475 kts 132°
2026-04-26 18:45 37.58021 57.18693 35124 ft 475 kts 132°
2026-04-26 18:45 37.53932 57.25247 35126 ft 475 kts 132°
2026-04-26 18:46 37.49841 57.31793 35132 ft 475 kts 131°
2026-04-26 18:46 37.46045 57.38633 35134 ft 477 kts 127°
2026-04-26 18:47 37.42430 57.45640 35130 ft 478 kts 127°
2026-04-26 18:47 37.38820 57.52582 35127 ft 477 kts 127°
2026-04-26 18:48 37.35149 57.59539 35128 ft 477 kts 127°
2026-04-26 18:48 37.31469 57.66475 35132 ft 477 kts 127°
2026-04-26 18:49 37.27788 57.73400 35123 ft 477 kts 127°
2026-04-26 18:49 37.24098 57.80331 35119 ft 477 kts 127°
2026-04-26 18:50 37.20405 57.87255 35120 ft 477 kts 128°
2026-04-26 18:50 37.16718 57.94156 35120 ft 477 kts 128°
2026-04-26 18:51 37.13021 58.01058 35119 ft 477 kts 128°
2026-04-26 18:51 37.09325 58.07961 35126 ft 478 kts 128°
2026-04-26 18:52 37.05643 58.14838 35123 ft 479 kts 128°
2026-04-26 18:52 37.01923 58.21774 35119 ft 480 kts 128°
2026-04-26 18:53 36.98194 58.28711 35120 ft 481 kts 128°
2026-04-26 18:53 36.94452 58.35655 35116 ft 482 kts 128°
2026-04-26 18:54 36.90695 58.42615 35123 ft 483 kts 128°
2026-04-26 18:54 36.86931 58.49574 35123 ft 483 kts 128°
2026-04-26 18:55 36.83163 58.56526 35127 ft 483 kts 129°
2026-04-26 18:55 36.79392 58.63468 35136 ft 483 kts 129°
2026-04-26 18:56 36.75612 58.70388 35147 ft 483 kts 129°
2026-04-26 18:56 36.71852 58.77253 35152 ft 483 kts 129°
2026-04-26 18:57 36.69318 58.81869 35138 ft 483 kts 129°
2026-04-26 18:57 36.64274 58.91044 35165 ft 482 kts 129°
2026-04-26 18:58 36.60481 58.97933 35168 ft 482 kts 129°
2026-04-26 18:58 36.57302 59.03697 35165 ft 482 kts 129°
2026-04-26 18:59 36.53533 59.10522 35181 ft 482 kts 130°
2026-04-26 18:59 36.49725 59.17392 35186 ft 482 kts 130°
2026-04-26 19:00 36.45917 59.24254 35193 ft 482 kts 130°
2026-04-26 19:00 36.42101 59.31113 35206 ft 482 kts 130°
2026-04-26 19:01 36.38284 59.37965 35204 ft 482 kts 130°
2026-04-26 19:01 36.34461 59.44810 35208 ft 482 kts 130°
2026-04-26 19:02 36.30633 59.51656 35215 ft 483 kts 130°
2026-04-26 19:02 36.27446 59.57343 35210 ft 483 kts 130°
2026-04-26 19:03 36.22972 59.65271 35215 ft 482 kts 133°
2026-04-26 19:03 36.18692 59.71596 35215 ft 478 kts 137°
2026-04-26 19:04 36.14266 59.77729 35211 ft 478 kts 138°
2026-04-26 19:04 36.09848 59.83890 35214 ft 478 kts 137°
2026-04-26 19:05 36.03268 59.93171 35210 ft 479 kts 137°
2026-04-26 19:06 35.98881 59.99366 35212 ft 479 kts 137°
2026-04-26 19:06 35.94523 60.05505 35202 ft 479 kts 137°
2026-04-26 19:07 35.90131 60.11677 35204 ft 479 kts 137°
2026-04-26 19:07 35.85734 60.17846 35199 ft 479 kts 137°
2026-04-26 19:08 35.81338 60.23999 35202 ft 478 kts 137°
2026-04-26 19:08 35.76937 60.30149 35203 ft 479 kts 137°
2026-04-26 19:09 35.72523 60.36308 35184 ft 479 kts 137°
2026-04-26 19:09 35.68109 60.42458 35187 ft 478 kts 138°
2026-04-26 19:10 35.63703 60.48583 35191 ft 478 kts 138°
2026-04-26 19:10 35.59292 60.54704 35179 ft 478 kts 138°
2026-04-26 19:11 35.54881 60.60826 35182 ft 478 kts 137°
2026-04-26 19:11 35.50523 60.66899 35177 ft 478 kts 137°
2026-04-26 19:12 35.46112 60.73039 35174 ft 479 kts 137°
2026-04-26 19:12 35.41941 60.78834 35164 ft 479 kts 137°
2026-04-26 19:13 35.37516 60.84968 35167 ft 480 kts 137°
2026-04-26 19:13 35.33092 60.91089 35159 ft 480 kts 137°
2026-04-26 19:14 35.28665 60.97205 35156 ft 480 kts 137°
2026-04-26 19:14 35.24235 61.03314 35150 ft 480 kts 137°
2026-04-26 19:15 35.19805 61.09413 35141 ft 479 kts 137°
2026-04-26 19:15 35.15323 61.15422 35143 ft 476 kts 141°
2026-04-26 19:16 35.10540 61.20963 35134 ft 474 kts 143°
2026-04-26 19:16 35.05714 61.26359 35140 ft 473 kts 143°
2026-04-26 19:17 35.00878 61.31832 35134 ft 474 kts 143°
2026-04-26 19:17 34.96065 61.37331 35130 ft 474 kts 143°
2026-04-26 19:18 34.91261 61.42834 35124 ft 474 kts 143°
2026-04-26 19:18 34.86437 61.48349 35121 ft 475 kts 143°
2026-04-26 19:19 34.81612 61.53849 35133 ft 475 kts 143°
2026-04-26 19:19 34.76779 61.59348 35133 ft 476 kts 143°
2026-04-26 19:20 34.71927 61.64858 35130 ft 477 kts 142°
2026-04-26 19:20 34.67068 61.70370 35121 ft 478 kts 142°
2026-04-26 19:21 34.62198 61.75885 35118 ft 479 kts 142°
2026-04-26 19:21 34.57320 61.81397 35117 ft 479 kts 142°
2026-04-26 19:22 34.52442 61.86901 35123 ft 479 kts 142°
2026-04-26 19:22 34.47561 61.92399 35116 ft 479 kts 142°
2026-04-26 19:23 34.42675 61.97895 35094 ft 480 kts 142°
2026-04-26 19:23 34.37806 62.03361 35033 ft 481 kts 142°
2026-04-26 19:24 34.32899 62.08862 35015 ft 480 kts 142°
2026-04-26 19:24 34.25543 62.17094 35014 ft 480 kts 142°
2026-04-26 19:25 34.21468 62.21648 35011 ft 480 kts 141°
2026-04-26 19:25 34.16233 62.28721 35006 ft 485 kts 134°
2026-04-26 19:26 34.11970 62.35032 35000 ft 485 kts 134°
2026-04-26 19:26 34.07688 62.41313 34999 ft 484 kts 135°
2026-04-26 19:27 34.03397 62.47508 35003 ft 484 kts 135°
2026-04-26 19:27 33.99051 62.53735 34984 ft 487 kts 135°
2026-04-26 19:28 33.94661 62.60004 34975 ft 492 kts 135°
2026-04-26 19:28 33.90232 62.66327 34964 ft 495 kts 135°
2026-04-26 19:29 33.85779 62.72675 34974 ft 497 kts 135°
2026-04-26 19:29 33.81301 62.79051 34962 ft 499 kts 135°
2026-04-26 19:30 33.76809 62.85435 34960 ft 500 kts 135°
2026-04-26 19:30 33.73082 62.90727 34956 ft 500 kts 135°
2026-04-26 19:31 33.67855 62.98128 34951 ft 498 kts 135°
2026-04-26 19:31 33.63375 63.04459 34952 ft 496 kts 135°
2026-04-26 19:32 33.58906 63.10762 34946 ft 496 kts 135°
2026-04-26 19:32 33.54431 63.17064 34948 ft 496 kts 135°
2026-04-26 19:33 33.49955 63.23353 34958 ft 496 kts 135°
2026-04-26 19:33 33.45504 63.29599 34948 ft 496 kts 135°
2026-04-26 19:34 33.41015 63.35889 34948 ft 497 kts 135°
2026-04-26 19:34 33.36512 63.42188 34938 ft 498 kts 135°
2026-04-26 19:35 33.31992 63.48497 34927 ft 498 kts 136°
2026-04-26 19:35 33.27471 63.54799 34925 ft 500 kts 135°
2026-04-26 19:36 33.24474 63.58969 34945 ft 499 kts 135°
2026-04-26 19:36 33.18421 63.67376 34921 ft 499 kts 135°
2026-04-26 19:37 33.13923 63.73612 34914 ft 499 kts 135°
2026-04-26 19:37 33.09390 63.79886 34917 ft 498 kts 136°
2026-04-26 19:38 33.04851 63.86156 34923 ft 499 kts 136°
2026-04-26 19:38 33.00309 63.92424 34916 ft 499 kts 136°
2026-04-26 19:39 32.95768 63.98675 34917 ft 498 kts 136°
2026-04-26 19:39 32.91232 64.04909 34916 ft 498 kts 136°
2026-04-26 19:40 32.86720 64.11101 34910 ft 499 kts 136°
2026-04-26 19:40 32.82158 64.17351 34908 ft 500 kts 136°
2026-04-26 19:41 32.77590 64.23593 34905 ft 500 kts 136°
2026-04-26 19:41 32.74538 64.27765 34911 ft 500 kts 136°
2026-04-26 19:42 32.68449 64.36070 34905 ft 500 kts 136°
2026-04-26 19:42 32.63879 64.42295 34908 ft 500 kts 136°
2026-04-26 19:43 32.59264 64.48462 34910 ft 499 kts 137°
2026-04-26 19:43 32.54574 64.54527 34906 ft 499 kts 137°
2026-04-26 19:44 32.49875 64.60583 34908 ft 499 kts 137°
2026-04-26 19:44 32.45974 64.65624 34900 ft 500 kts 137°
2026-04-26 19:45 32.41283 64.71696 34895 ft 500 kts 137°
2026-04-26 19:45 32.36582 64.77773 34900 ft 500 kts 137°
2026-04-26 19:46 32.31876 64.83845 34896 ft 500 kts 137°
2026-04-26 19:46 32.27172 64.89904 34903 ft 500 kts 137°
2026-04-26 19:47 32.23267 64.94926 34894 ft 500 kts 137°
2026-04-26 19:47 32.17919 65.01793 34900 ft 500 kts 137°
2026-04-26 19:48 32.13209 65.07829 34900 ft 500 kts 137°
2026-04-26 19:48 32.08486 65.13871 34890 ft 500 kts 137°
2026-04-26 19:49 32.03771 65.19896 34882 ft 500 kts 137°
2026-04-26 19:49 31.99054 65.25915 34871 ft 498 kts 137°
2026-04-26 19:50 31.94340 65.31917 34876 ft 500 kts 137°
2026-04-26 19:50 31.89613 65.37919 34875 ft 499 kts 137°
2026-04-26 19:51 31.84914 65.43886 34865 ft 500 kts 137°
2026-04-26 19:51 31.80181 65.49886 34870 ft 501 kts 137°
2026-04-26 19:52 31.75440 65.55884 34874 ft 501 kts 137°
2026-04-26 19:52 31.70688 65.61886 34869 ft 501 kts 137°
2026-04-26 19:53 31.65931 65.67884 34870 ft 501 kts 137°
2026-04-26 19:53 31.61170 65.73880 34858 ft 502 kts 137°
2026-04-26 19:54 31.56410 65.79865 34863 ft 501 kts 137°
2026-04-26 19:54 31.51683 65.85846 34853 ft 502 kts 134°
2026-04-26 19:55 31.49723 65.89263 34862 ft 509 kts 120°
2026-04-26 19:55 31.48399 65.93130 34860 ft 515 kts 108°
2026-04-26 19:55 31.47758 65.97274 34866 ft 519 kts 96°
2026-04-26 19:55 31.47557 66.01499 34873 ft 521 kts 94°
2026-04-26 19:56 31.47265 66.09995 34818 ft 523 kts 94°
2026-04-26 19:56 31.46915 66.18409 34801 ft 511 kts 95°
2026-04-26 19:57 31.46504 66.26628 34807 ft 507 kts 95°
2026-04-26 19:57 31.46067 66.34864 34804 ft 506 kts 95°
2026-04-26 19:58 31.45631 66.43078 34815 ft 504 kts 95°
2026-04-26 19:58 31.45194 66.51279 34806 ft 504 kts 95°
2026-04-26 19:59 31.44754 66.59484 34805 ft 505 kts 95°
2026-04-26 19:59 31.44306 66.67707 34799 ft 506 kts 95°
2026-04-26 20:00 31.43852 66.75939 34800 ft 507 kts 95°
2026-04-26 20:00 31.43393 66.84197 34799 ft 509 kts 95°
2026-04-26 20:01 31.43133 66.92477 34804 ft 510 kts 91°
2026-04-26 20:01 31.43203 67.00787 34814 ft 511 kts 90°
2026-04-26 20:02 31.43288 67.09103 34805 ft 511 kts 90°
2026-04-26 20:02 31.43321 67.16021 34794 ft 511 kts 91°
2026-04-26 20:03 31.43336 67.25703 34758 ft 511 kts 91°
2026-04-26 20:03 31.43343 67.34022 34748 ft 511 kts 91°
2026-04-26 20:04 31.43345 67.42342 34746 ft 510 kts 90°
2026-04-26 20:04 31.43342 67.50648 34745 ft 509 kts 90°
2026-04-26 20:05 31.43335 67.58940 34738 ft 509 kts 90°
2026-04-26 20:05 31.43192 67.67221 34746 ft 508 kts 92°
2026-04-26 20:06 31.42850 67.75484 34741 ft 508 kts 93°
2026-04-26 20:06 31.42505 67.83746 34740 ft 508 kts 93°
2026-04-26 20:07 31.42188 67.92011 34736 ft 508 kts 92°
2026-04-26 20:07 31.41884 68.00208 34735 ft 508 kts 92°
2026-04-26 20:08 31.41574 68.08468 34731 ft 508 kts 92°
2026-04-26 20:08 31.41256 68.16744 34728 ft 509 kts 92°
2026-04-26 20:09 31.40931 68.25021 34733 ft 509 kts 92°
2026-04-26 20:09 31.40603 68.33296 34728 ft 509 kts 93°
2026-04-26 20:10 31.40269 68.41583 34737 ft 509 kts 93°
2026-04-26 20:10 31.39930 68.49860 34731 ft 509 kts 93°
2026-04-26 20:11 31.39584 68.58139 34730 ft 509 kts 93°
2026-04-26 20:12 31.39058 68.70497 34727 ft 507 kts 93°
2026-04-26 20:12 31.37993 68.78643 34716 ft 503 kts 117°
2026-04-26 20:12 31.36146 68.81993 34747 ft 494 kts 135°
2026-04-26 20:13 31.33665 68.84732 34743 ft 488 kts 148°
2026-04-26 20:13 31.30781 68.86736 34746 ft 479 kts 160°
2026-04-26 20:13 31.27727 68.88278 34741 ft 478 kts 162°
2026-04-26 20:14 31.21538 68.91211 34739 ft 482 kts 162°
2026-04-26 20:14 31.15288 68.94186 34734 ft 488 kts 162°
2026-04-26 20:15 31.08989 68.97254 34731 ft 492 kts 161°
2026-04-26 20:15 31.02671 69.00366 34715 ft 494 kts 161°
2026-04-26 20:16 30.96335 69.03481 34716 ft 494 kts 161°
2026-04-26 20:16 30.89996 69.06591 34717 ft 494 kts 161°
2026-04-26 20:17 30.83670 69.09689 34722 ft 492 kts 161°
2026-04-26 20:17 30.77405 69.12752 34722 ft 491 kts 161°
2026-04-26 20:18 30.71102 69.15828 34721 ft 491 kts 161°
2026-04-26 20:18 30.64808 69.18895 34720 ft 491 kts 161°
2026-04-26 20:19 30.58508 69.21961 34732 ft 491 kts 161°
2026-04-26 20:19 30.52210 69.25022 34718 ft 491 kts 161°
2026-04-26 20:20 30.45904 69.28082 34710 ft 491 kts 161°
2026-04-26 20:20 30.39607 69.31135 34717 ft 490 kts 161°
2026-04-26 20:21 30.33308 69.34184 34714 ft 490 kts 161°
2026-04-26 20:21 30.27008 69.37230 34714 ft 490 kts 161°
2026-04-26 20:22 30.20758 69.40247 34710 ft 490 kts 161°
2026-04-26 20:22 30.14468 69.43280 34718 ft 489 kts 161°
2026-04-26 20:23 30.08174 69.46265 34719 ft 488 kts 162°
2026-04-26 20:23 30.01882 69.49264 34710 ft 489 kts 161°
2026-04-26 20:24 29.95609 69.52316 34716 ft 488 kts 161°
2026-04-26 20:24 29.89341 69.55345 34705 ft 488 kts 161°
2026-04-26 20:25 29.83111 69.58336 34701 ft 480 kts 161°
2026-04-26 20:25 29.76983 69.61267 34707 ft 475 kts 161°
2026-04-26 20:26 29.70896 69.64170 34709 ft 472 kts 161°
2026-04-26 20:26 29.64874 69.67039 34719 ft 471 kts 161°
2026-04-26 20:27 29.58819 69.69921 34710 ft 471 kts 161°
2026-04-26 20:27 29.52755 69.72804 34718 ft 472 kts 161°
2026-04-26 20:28 29.46673 69.75692 34713 ft 474 kts 161°
2026-04-26 20:28 29.40570 69.78587 34714 ft 476 kts 161°
2026-04-26 20:29 29.34437 69.81493 34710 ft 477 kts 161°
2026-04-26 20:29 29.28291 69.84401 34711 ft 479 kts 161°
2026-04-26 20:30 29.22128 69.87312 34712 ft 479 kts 161°
2026-04-26 20:30 29.15955 69.90225 34715 ft 480 kts 161°
2026-04-26 20:31 29.09784 69.93133 34706 ft 480 kts 161°
2026-04-26 20:31 29.04653 69.95550 34714 ft 480 kts 161°
2026-04-26 20:32 28.98481 69.98451 34714 ft 480 kts 161°
2026-04-26 20:32 28.92311 70.01348 34712 ft 479 kts 161°
2026-04-26 20:33 28.86142 70.04240 34713 ft 479 kts 161°
2026-04-26 20:33 28.79971 70.07131 34708 ft 479 kts 161°
2026-04-26 20:34 28.73804 70.10016 34710 ft 479 kts 161°
2026-04-26 20:34 28.67885 70.12780 34704 ft 479 kts 161°
2026-04-26 20:35 28.62755 70.15174 34696 ft 480 kts 161°
2026-04-26 20:35 28.56586 70.18048 34691 ft 479 kts 161°
2026-04-26 20:36 28.50550 70.21265 34663 ft 485 kts 143°
2026-04-26 20:36 28.48238 70.24057 34705 ft 488 kts 125°
2026-04-26 20:36 28.46629 70.27456 34701 ft 491 kts 112°
2026-04-26 20:36 28.45723 70.31197 34688 ft 492 kts 97°
2026-04-26 20:37 28.45437 70.35066 34712 ft 492 kts 94°
2026-04-26 20:37 28.45077 70.42843 34694 ft 493 kts 93°
2026-04-26 20:38 28.44714 70.50638 34689 ft 494 kts 93°
2026-04-26 20:38 28.44287 70.58423 34697 ft 494 kts 94°
2026-04-26 20:39 28.43827 70.66166 34694 ft 494 kts 94°
2026-04-26 20:39 28.43357 70.73969 34695 ft 496 kts 94°
2026-04-26 20:40 28.42884 70.81782 34693 ft 496 kts 94°
2026-04-26 20:40 28.42531 70.89606 34697 ft 496 kts 89°
2026-04-26 20:41 28.42683 70.97443 34693 ft 496 kts 88°
2026-04-26 20:41 28.42907 71.05276 34692 ft 496 kts 88°
2026-04-26 20:42 28.43160 71.13100 34691 ft 495 kts 87°
2026-04-26 20:42 28.43490 71.20918 34695 ft 495 kts 87°
2026-04-26 20:43 28.43845 71.28771 34706 ft 500 kts 86°
2026-04-26 20:43 28.44182 71.36643 34701 ft 504 kts 87°
2026-04-26 20:44 28.44466 71.44621 34700 ft 506 kts 88°
2026-04-26 20:44 28.44734 71.52622 34692 ft 506 kts 88°
2026-04-26 20:45 28.44999 71.60613 34689 ft 506 kts 88°
2026-04-26 20:45 28.45267 71.68596 34695 ft 505 kts 88°
2026-04-26 20:46 28.45534 71.76584 34693 ft 505 kts 88°
2026-04-26 20:46 28.45801 71.84559 34695 ft 505 kts 88°
2026-04-26 20:47 28.46070 71.92544 34696 ft 505 kts 88°
2026-04-26 20:47 28.46337 72.00525 34692 ft 505 kts 88°
2026-04-26 20:48 28.46398 72.08498 34681 ft 504 kts 96°
2026-04-26 20:48 28.45401 72.16381 34694 ft 504 kts 99°
2026-04-26 20:49 28.44266 72.24193 34693 ft 504 kts 99°
2026-04-26 20:49 28.43188 72.32066 34692 ft 504 kts 99°
2026-04-26 20:50 28.42159 72.39957 34695 ft 504 kts 98°
2026-04-26 20:50 28.41143 72.47840 34702 ft 505 kts 98°
2026-04-26 20:51 28.40117 72.55729 34703 ft 505 kts 98°
2026-04-26 20:51 28.39084 72.63620 34704 ft 505 kts 98°
2026-04-26 20:52 28.38047 72.71519 34702 ft 506 kts 98°
2026-04-26 20:52 28.37004 72.79422 34706 ft 506 kts 98°
2026-04-26 20:53 28.35954 72.87330 34703 ft 507 kts 98°
2026-04-26 20:53 28.34898 72.95246 34700 ft 507 kts 98°
2026-04-26 20:54 28.33842 73.03123 34703 ft 508 kts 98°
2026-04-26 20:54 28.32777 73.11050 34705 ft 508 kts 98°
2026-04-26 20:55 28.31708 73.18976 34703 ft 508 kts 98°
2026-04-26 20:55 28.30627 73.26912 34705 ft 508 kts 98°
2026-04-26 20:56 28.29547 73.34824 34702 ft 507 kts 98°
2026-04-26 20:56 28.28466 73.42728 34703 ft 507 kts 98°
2026-04-26 20:57 28.27381 73.50621 34710 ft 506 kts 98°
2026-04-26 20:57 28.26291 73.58510 34710 ft 507 kts 98°
2026-04-26 20:58 28.25196 73.66404 34707 ft 507 kts 98°
2026-04-26 20:58 28.24096 73.74298 34716 ft 507 kts 98°
2026-04-26 20:59 28.22989 73.82203 34712 ft 508 kts 98°
2026-04-26 20:59 28.21878 73.90107 34710 ft 507 kts 98°
2026-04-26 21:00 28.20764 73.98003 34713 ft 507 kts 98°
2026-04-26 21:00 28.19648 74.05872 34636 ft 507 kts 98°
2026-04-26 21:01 28.18844 74.13774 34702 ft 504 kts 88°
2026-04-26 21:01 28.19060 74.21727 34725 ft 505 kts 86°
2026-04-26 21:02 28.19347 74.29686 34729 ft 506 kts 86°
2026-04-26 21:02 28.19586 74.37653 34728 ft 505 kts 86°
2026-04-26 21:03 28.19786 74.45618 34725 ft 505 kts 87°
2026-04-26 21:03 28.19971 74.53521 34717 ft 505 kts 87°
2026-04-26 21:04 28.20152 74.61520 34720 ft 505 kts 87°
2026-04-26 21:04 28.20333 74.69421 34731 ft 505 kts 88°
2026-04-26 21:05 28.20512 74.77372 34722 ft 505 kts 88°
2026-04-26 21:05 28.20684 74.85324 34723 ft 505 kts 88°
2026-04-26 21:06 28.20851 74.93280 34717 ft 504 kts 88°
2026-04-26 21:06 28.21015 75.01227 34724 ft 504 kts 88°
2026-04-26 21:07 28.21173 75.09179 34725 ft 504 kts 88°
2026-04-26 21:07 28.21326 75.17133 34722 ft 504 kts 88°
2026-04-26 21:08 28.21474 75.25079 34724 ft 504 kts 88°
2026-04-26 21:08 28.21619 75.33062 34128 ft 512 kts 87°
2026-04-26 21:08 28.21690 75.37075 33531 ft 506 kts 88°
2026-04-26 21:09 28.21759 75.41044 32941 ft 501 kts 88°
2026-04-26 21:09 28.21827 75.44984 32332 ft 499 kts 87°
2026-04-26 21:09 28.21894 75.48943 31155 ft 508 kts 88°
2026-04-26 21:09 28.21961 75.52954 30228 ft 511 kts 88°
2026-04-26 21:10 28.22028 75.57000 29259 ft 514 kts 88°
2026-04-26 21:10 28.22092 75.61064 28258 ft 516 kts 88°
2026-04-26 21:10 28.22156 75.65135 27217 ft 518 kts 88°
2026-04-26 21:10 28.22218 75.69233 26101 ft 520 kts 88°
2026-04-26 21:11 28.22279 75.73333 25205 ft 518 kts 88°
2026-04-26 21:11 28.22339 75.77397 24375 ft 514 kts 88°
2026-04-26 21:11 28.22397 75.81415 23909 ft 502 kts 88°
2026-04-26 21:11 28.22451 75.85304 23780 ft 484 kts 88°
2026-04-26 21:12 28.22502 75.89058 23667 ft 468 kts 88°
2026-04-26 21:12 28.22552 75.92692 23571 ft 452 kts 88°
2026-04-26 21:12 28.22600 75.96194 23482 ft 438 kts 87°
2026-04-26 21:12 28.22645 75.99595 23398 ft 424 kts 87°
2026-04-26 21:13 28.22688 76.02886 23317 ft 411 kts 88°
2026-04-26 21:13 28.22851 76.06032 23220 ft 397 kts 76°
2026-04-26 21:13 28.23747 76.08902 23134 ft 380 kts 60°
2026-04-26 21:13 28.24918 76.11557 22877 ft 374 kts 59°
2026-04-26 21:14 28.26112 76.14178 22458 ft 373 kts 59°
2026-04-26 21:14 28.27305 76.16788 22055 ft 373 kts 59°
2026-04-26 21:14 28.28487 76.19394 21696 ft 370 kts 59°
2026-04-26 21:14 28.29654 76.21989 21354 ft 368 kts 59°
2026-04-26 21:15 28.30806 76.24571 20998 ft 365 kts 60°
2026-04-26 21:15 28.31945 76.27138 20646 ft 363 kts 60°
2026-04-26 21:15 28.33075 76.29691 20315 ft 361 kts 60°
2026-04-26 21:15 28.34194 76.32223 19955 ft 359 kts 60°
2026-04-26 21:16 28.35309 76.34750 19601 ft 357 kts 60°
2026-04-26 21:16 28.36418 76.37264 19262 ft 355 kts 60°
2026-04-26 21:16 28.37518 76.39763 18911 ft 353 kts 60°
2026-04-26 21:16 28.38615 76.42253 18573 ft 351 kts 60°
2026-04-26 21:17 28.39704 76.44725 18227 ft 349 kts 60°
2026-04-26 21:17 28.40773 76.47151 17884 ft 347 kts 60°
2026-04-26 21:17 28.41846 76.49591 17539 ft 345 kts 60°
2026-04-26 21:17 28.42917 76.52027 17173 ft 344 kts 60°
2026-04-26 21:18 28.43985 76.54460 16788 ft 344 kts 60°
2026-04-26 21:18 28.45052 76.56891 16432 ft 343 kts 60°
2026-04-26 21:18 28.46111 76.59307 16077 ft 342 kts 60°
2026-04-26 21:18 28.47169 76.61722 15733 ft 340 kts 60°
2026-04-26 21:19 28.48223 76.64125 15380 ft 339 kts 60°
2026-04-26 21:19 28.49271 76.66520 15026 ft 338 kts 60°
2026-04-26 21:19 28.50314 76.68905 14808 ft 332 kts 60°
2026-04-26 21:19 28.51310 76.71226 14724 ft 323 kts 65°
2026-04-26 21:20 28.51705 76.72884 14609 ft 322 kts 82°
2026-04-26 21:20 28.51583 76.75403 14427 ft 319 kts 101°
2026-04-26 21:20 28.51088 76.77844 14139 ft 316 kts 103°
2026-04-26 21:20 28.50550 76.80245 13803 ft 318 kts 104°
2026-04-26 21:21 28.50002 76.82676 13508 ft 316 kts 104°
2026-04-26 21:21 28.49467 76.85089 13227 ft 314 kts 104°
2026-04-26 21:21 28.48938 76.87511 12774 ft 319 kts 104°
2026-04-26 21:21 28.48414 76.89957 12507 ft 316 kts 104°
2026-04-26 21:22 28.47900 76.92362 12293 ft 312 kts 104°
2026-04-26 21:22 28.47390 76.94749 11989 ft 311 kts 104°
2026-04-26 21:22 28.46879 76.97130 11666 ft 310 kts 104°
2026-04-26 21:23 28.45865 77.01859 11167 ft 305 kts 104°
2026-04-26 21:23 28.45369 77.04171 11075 ft 294 kts 104°
2026-04-26 21:23 28.44895 77.06374 11023 ft 279 kts 104°
2026-04-26 21:23 28.44445 77.08462 10919 ft 264 kts 104°
2026-04-26 21:24 28.44021 77.10434 10827 ft 250 kts 104°
2026-04-26 21:24 28.43618 77.12300 10714 ft 236 kts 104°
2026-04-26 21:24 28.43316 77.13699 10567 ft 228 kts 104°
2026-04-26 21:24 28.42941 77.15432 10254 ft 225 kts 104°
2026-04-26 21:25 28.42572 77.17150 9940 ft 222 kts 103°
2026-04-26 21:25 28.42206 77.18846 9635 ft 221 kts 103°
2026-04-26 21:25 28.42047 77.19583 9490 ft 220 kts 103°
2026-04-26 21:25 28.41736 77.21005 9169 ft 221 kts 103°
2026-04-26 21:26 28.41373 77.22691 8808 ft 221 kts 103°
2026-04-26 21:26 28.41004 77.24385 8496 ft 218 kts 104°
2026-04-26 21:26 28.40634 77.26033 8192 ft 215 kts 102°
2026-04-26 21:26 28.40282 77.27672 7887 ft 212 kts 102°
2026-04-26 21:27 28.40078 77.29085 7574 ft 209 kts 83°
2026-04-26 21:27 28.40582 77.30577 7190 ft 199 kts 43°
2026-04-26 21:27 28.41689 77.31415 6866 ft 188 kts 12°
2026-04-26 21:27 28.42936 77.31550 6496 ft 181 kts 351°
2026-04-26 21:28 28.44205 77.31393 6154 ft 181 kts 351°
2026-04-26 21:28 28.45433 77.31231 5864 ft 179 kts 351°
2026-04-26 21:28 28.46668 77.31067 5561 ft 178 kts 351°
2026-04-26 21:28 28.47897 77.30904 5285 ft 177 kts 351°
2026-04-26 21:29 28.49065 77.30554 4946 ft 174 kts 327°
2026-04-26 21:29 28.49939 77.29619 4623 ft 174 kts 304°
2026-04-26 21:29 28.50385 77.28341 4307 ft 176 kts 286°
2026-04-26 21:29 28.50676 77.26998 3975 ft 175 kts 287°
2026-04-26 21:30 28.50965 77.25654 3690 ft 174 kts 287°
2026-04-26 21:30 28.51268 77.24287 3257 ft 180 kts 287°
2026-04-26 21:30 28.51556 77.22943 3024 ft 171 kts 287°
2026-04-26 21:30 28.51834 77.21645 2804 ft 168 kts 286°
2026-04-26 21:31 28.52113 77.20341 2607 ft 171 kts 285°
2026-04-26 21:31 28.52392 77.19044 2338 ft 164 kts 285°
2026-04-26 21:31 28.52648 77.17846 2151 ft 149 kts 284°
2026-04-26 21:31 28.52892 77.16703 1936 ft 147 kts 283°
2026-04-26 21:32 28.53134 77.15579 1745 ft 146 kts 283°
2026-04-26 21:32 28.53372 77.14447 1505 ft 148 kts 283°
2026-04-26 21:32 28.53610 77.13316 1268 ft 144 kts 284°
2026-04-26 21:32 28.53853 77.12209 1085 ft 145 kts 283°
2026-04-26 21:33 28.54095 77.11094 902 ft 145 kts 284°
2026-04-26 21:33 28.54335 77.09978 759 ft 144 kts 283°
2026-04-26 21:33 28.54553 77.08959 747 ft 113 kts 284°
2026-04-26 21:33 28.54677 77.08483 747 ft 41 kts 303°
2026-04-26 21:34 28.54771 77.08361 748 ft 18 kts 314°
2026-04-26 21:34 28.54840 77.08281 746 ft 0 kts 314°
2026-04-26 21:35 28.54849 77.08271 750 ft 3 kts 314°
2026-04-26 21:35 28.54855 77.08264 750 ft 2 kts 314°
2026-04-26 21:35 28.54882 77.08233 750 ft 9 kts 314°
2026-04-26 21:35 28.54932 77.08173 750 ft 11 kts 310°
2026-04-26 21:36 28.54963 77.08095 749 ft 4 kts 283°
2026-04-26 21:36 28.54963 77.08094 749 ft 0 kts 283°
2026-04-26 21:39 28.54964 77.08092 750 ft 2 kts 283°
2026-04-26 21:39 28.54975 77.08040 750 ft 11 kts 283°
2026-04-26 21:40 28.54991 77.07973 749 ft 4 kts 285°
2026-04-26 21:40 28.55010 77.07904 748 ft 9 kts 296°
2026-04-26 21:40 28.55062 77.07875 750 ft 9 kts 11°
2026-04-26 21:40 28.55122 77.07892 750 ft 9 kts 14°
2026-04-26 21:41 28.55179 77.07915 749 ft 9 kts 34°
2026-04-26 21:41 28.55221 77.07979 750 ft 11 kts 59°
2026-04-26 21:41 28.55246 77.08035 750 ft 0 kts 88°
2026-04-26 21:41 28.55238 77.08054 750 ft 6 kts 128°
2026-04-26 21:42 28.55194 77.08087 750 ft 0 kts 148°